G0TRT-13 Weather Reports


time (UTC)temp
C
wind
direction
speed
KPH
gust
KPH
rain 1hr
cm
rain 24hr
cm
rain mn
cm
humidity
%
barometer
mb
20260507144305 13 214 0.0 0.0 0.00 0.00 0.00 64 1014.7
20260507143803 13 214 0.0 0.0 0.00 0.00 0.00 64 1014.8
20260507143309 13 212 0.0 0.0 0.00 0.00 0.00 66 1014.8
20260507142803 13 212 0.0 1.6 0.00 0.00 0.00 63 1014.8
20260507142306 13 214 0.0 1.6 0.00 0.00 0.00 65 1014.9
20260507141802 13 210 0.0 0.0 0.00 0.00 0.00 64 1014.9
20260507141302 14 210 0.0 0.0 0.00 0.00 0.00 64 1014.9
20260507140802 14 210 0.0 0.0 0.00 0.00 0.00 65 1014.9
20260507140303 14 210 0.0 0.0 0.00 0.00 0.00 64 1015.0
20260507135802 14 205 0.0 0.0 0.00 0.00 0.00 65 1014.9
20260507135306 14 207 0.0 0.0 0.00 0.00 0.00 63 1015.0
20260507134802 14 215 0.0 0.0 0.00 0.00 0.00 63 1015.0
20260507134303 14 218 0.0 0.0 0.00 0.00 0.00 64 1015.0
20260507133802 15 212 0.0 0.0 0.00 0.00 0.00 65 1015.0
20260507133303 15 219 0.0 3.2 0.00 0.00 0.00 65 1014.9
20260507132802 15 219 1.6 3.2 0.00 0.00 0.00 64 1015.0
20260507132307 15 219 1.6 6.4 0.00 0.00 0.00 63 1015.0
20260507131802 15 214 0.0 6.4 0.00 0.00 0.00 63 1015.1
20260507131303 16 209 0.0 4.8 0.00 0.00 0.00 62 1015.0
20260507130803 16 220 0.0 3.2 0.00 0.00 0.00 62 1015.0
20260507130303 16 218 0.0 3.2 0.00 0.00 0.00 64 1015.1
20260507125803 16 217 0.0 3.2 0.00 0.00 0.00 63 1015.1
20260507125306 16 197 0.0 3.2 0.00 0.00 0.00 63 1015.1
20260507124803 15 132 0.0 1.6 0.00 0.00 0.00 65 1015.1
20260507124302 15 200 0.0 4.8 0.00 0.00 0.00 63 1015.1
20260507123802 15 200 0.0 4.8 0.00 0.00 0.00 62 1015.1
20260507123302 15 203 0.0 1.6 0.00 0.00 0.00 63 1015.1
20260507122803 15 156 0.0 1.6 0.00 0.00 0.00 62 1015.1
20260507122306 15 219 0.0 0.0 0.00 0.00 0.00 63 1015.2
20260507121804 15 208 0.0 1.6 0.00 0.00 0.00 63 1015.2
20260507121302 15 207 0.0 1.6 0.00 0.00 0.00 63 1015.2
20260507120802 15 208 0.0 0.0 0.00 0.00 0.00 61 1015.2
20260507120302 15 131 0.0 0.0 0.00 0.00 0.00 61 1015.3
20260507115803 15 127 0.0 0.0 0.00 0.00 0.00 60 1015.2
20260507115306 15 94 0.0 0.0 0.00 0.00 0.00 60 1015.2
20260507114802 15 211 0.0 0.0 0.00 0.00 0.00 60 1015.3
20260507114302 15 189 0.0 0.0 0.00 0.00 0.00 58 1015.2
20260507113803 15 184 0.0 0.0 0.00 0.00 0.00 58 1015.2
20260507113302 15 210 0.0 0.0 0.00 0.00 0.00 59 1015.2
20260507112803 16 213 0.0 3.2 0.00 0.00 0.00 58 1015.1
20260507112306 16 223 0.0 3.2 0.00 0.00 0.00 57 1015.2
20260507111803 16 191 0.0 3.2 0.00 0.00 0.00 54 1015.2
20260507111303 16 229 0.0 3.2 0.00 0.00 0.00 56 1015.2
20260507110803 16 107 0.0 4.8 0.00 0.00 0.00 58 1015.2
20260507110319 16 215 0.0 4.8 0.00 0.00 0.00 62 1015.2
20260507105804 15 102 0.0 1.6 0.00 0.00 0.00 65 1015.4
20260507105306 14 103 0.0 3.2 0.00 0.00 0.00 64 1015.3
20260507104802 14 104 0.0 3.2 0.00 0.00 0.00 65 1015.4
20260507104259 15 103 0.0 3.2 0.00 0.00 0.00 65 1015.3
20260507103758 15 124 0.0 3.2 0.00 0.00 0.00 64 1015.4
20260507103255 15 207 0.0 1.6 0.00 0.00 0.00 63 1015.4
20260507102754 16 205 0.0 3.2 0.00 0.00 0.00 63 1015.5
20260507102251 16 205 0.0 3.2 0.00 0.00 0.00 65 1015.5
20260507101750 16 210 0.0 3.2 0.00 0.00 0.00 66 1015.7
20260507101247 16 106 0.0 3.2 0.00 0.00 0.00 67 1015.7
20260507100746 16 105 0.0 1.6 0.00 0.00 0.00 66 1015.8
20260507100243 15 111 0.0 1.6 0.00 0.00 0.00 68 1015.7
20260507095742 15 205 0.0 1.6 0.00 0.00 0.00 70 1015.7
20260507095239 15 206 0.0 1.6 0.00 0.00 0.00 67 1015.7
20260507094736 15 195 0.0 1.6 0.00 0.00 0.00 68 1015.5
20260507094235 15 131 0.0 1.6 0.00 0.00 0.00 67 1015.4
20260507093732 15 182 0.0 3.2 0.00 0.00 0.00 67 1015.5
20260507093229 15 190 0.0 4.8 0.00 0.00 0.00 67 1015.7
20260507092727 15 109 0.0 4.8 0.00 0.00 0.00 68 1015.5
20260507092225 15 124 0.0 3.2 0.00 0.00 0.00 69 1015.7
20260507091725 15 189 0.0 0.0 0.00 0.00 0.00 69 1015.9
20260507091223 15 164 0.0 0.0 0.00 0.00 0.00 70 1015.9
20260507090721 14 165 0.0 0.0 0.00 0.00 0.00 72 1015.7
20260507090223 14 186 0.0 1.6 0.00 0.00 0.00 72 1015.8
20260507085720 13 188 0.0 1.6 0.00 0.00 0.00 72 1015.8
20260507085218 13 103 0.0 1.6 0.00 0.00 0.00 72 1015.8
20260507084717 13 187 0.0 3.2 0.00 0.00 0.00 74 1015.8
20260507084217 13 188 0.0 3.2 0.00 0.00 0.00 73 1015.8
20260507083717 13 161 0.0 1.6 0.00 0.00 0.00 76 1015.7
20260507083214 12 160 0.0 1.6 0.00 0.00 0.00 77 1015.8
20260507082712 12 165 0.0 4.8 0.00 0.00 0.00 77 1015.8
20260507082211 11 146 0.0 4.8 0.00 0.00 0.00 77 1015.8
20260507081708 11 164 0.0 1.6 0.00 0.00 0.00 80 1015.8
20260507081207 10 172 0.0 1.6 0.00 0.00 0.00 80 1015.8
20260507080703 10 129 0.0 1.6 0.00 0.00 0.00 79 1015.8
20260507080202 10 129 0.0 1.6 0.00 0.00 0.00 81 1015.9
20260507075703 10 120 0.0 1.6 0.00 0.00 0.00 82 1015.8
20260507075202 10 120 0.0 1.6 0.00 0.00 0.00 83 1015.8
20260507074702 9 118 0.0 1.6 0.00 0.00 0.00 83 1015.7
20260507074205 9 142 0.0 1.6 0.00 0.00 0.00 84 1015.7
20260507073702 8 118 0.0 3.2 0.00 0.00 0.00 84 1015.5
20260507073205 8 110 0.0 3.2 0.00 0.00 0.00 84 1015.5
20260507072703 8 158 0.0 1.6 0.00 0.00 0.00 85 1015.7
20260507072202 8 159 0.0 1.6 0.00 0.00 0.00 86 1015.7
20260507071704 8 128 0.0 1.6 0.00 0.00 0.00 86 1015.7
20260507071202 7 136 0.0 1.6 0.00 0.00 0.00 86 1015.7
20260507070703 7 136 0.0 1.6 0.00 0.00 0.00 87 1015.7
20260507070203 7 136 0.0 1.6 0.00 0.00 0.00 87 1015.5
20260507065702 7 136 0.0 1.6 0.00 0.00 0.00 87 1015.5
20260507065204 7 136 0.0 1.6 0.00 0.00 0.00 87 1015.4
20260507064703 7 137 0.0 1.6 0.00 0.00 0.00 87 1015.5
20260507064203 7 137 0.0 1.6 0.00 0.00 0.00 87 1015.5
20260507063706 7 161 0.0 0.0 0.00 0.00 0.00 88 1015.5
20260507063202 6 161 0.0 0.0 0.00 0.00 0.00 88 1015.5
20260507062656 6 161 0.0 0.0 0.00 0.00 0.00 87 1015.5
20260507062150 6 162 0.0 0.0 0.00 0.00 0.00 88 1015.5
20260507061645 6 162 0.0 1.6 0.00 0.00 0.00 87 1015.7
20260507061138 6 127 0.0 1.6 0.00 0.00 0.00 88 1015.4
20260507060632 6 127 0.0 0.0 0.00 0.00 0.00 88 1015.2
20260507060131 6 127 0.0 0.0 0.00 0.00 0.00 88 1015.2
20260507055631 6 127 0.0 0.0 0.00 0.00 0.00 88 1015.1
20260507055128 6 127 0.0 1.6 0.00 0.00 0.00 88 1015.1
20260507054626 6 127 0.0 1.6 0.00 0.00 0.00 88 1015.0
20260507054127 6 125 0.0 1.6 0.00 0.00 0.00 88 1015.1
20260507053626 6 125 0.0 1.6 0.00 0.00 0.00 88 1015.0
20260507053120 6 167 0.0 1.6 0.00 0.00 0.00 87 1015.0
20260507052620 6 142 0.0 1.6 0.00 0.00 0.00 87 1015.0
20260507052121 6 155 0.0 1.6 0.00 0.00 0.00 87 1015.0
20260507051618 6 115 0.0 1.6 0.00 0.00 0.00 87 1015.0
20260507051116 6 115 0.0 1.6 0.00 0.00 0.00 87 1015.1
20260507050627 6 115 0.0 0.0 0.00 0.00 0.00 87 1015.1
20260507050113 6 115 0.0 0.0 0.00 0.00 0.00 87 1015.2
20260507045613 6 115 0.0 0.0 0.00 0.00 0.00 87 1015.1
20260507045113 6 115 0.0 0.0 0.00 0.00 0.00 87 1015.0
20260507044610 6 115 0.0 0.0 0.00 0.00 0.00 87 1014.9
20260507044108 6 115 0.0 0.0 0.00 0.00 0.00 87 1015.0
20260507043606 6 115 0.0 1.6 0.00 0.00 0.00 87 1015.0
20260507043104 6 115 0.0 1.6 0.00 0.00 0.00 87 1015.0
20260507042602 6 115 0.0 1.6 0.00 0.00 0.00 87 1014.9
20260507042103 6 115 0.0 3.2 0.00 0.00 0.00 87 1014.8
20260507041559 6 115 0.0 3.2 0.00 0.00 0.00 87 1014.8
20260507041054 6 172 0.0 0.0 0.00 0.00 0.00 87 1014.8
20260507040554 6 171 0.0 0.0 0.00 0.00 0.00 86 1014.9
20260507040054 6 171 0.0 0.0 0.00 0.00 0.00 86 1014.9
20260507035556 6 172 0.0 0.0 0.00 0.00 0.00 86 1014.9
20260507035055 6 172 0.0 0.0 0.00 0.00 0.00 86 1014.9
20260507034554 6 172 0.0 0.0 0.00 0.00 0.00 86 1014.9
20260507034055 6 171 0.0 0.0 0.00 0.00 0.00 86 1015.0
20260507033554 6 171 0.0 0.0 0.00 0.00 0.00 86 1014.9
20260507033055 6 171 0.0 0.0 0.00 0.00 0.00 86 1014.9
20260507032554 6 171 0.0 0.0 0.00 0.00 0.00 86 1015.0
20260507032055 6 171 0.0 0.0 0.00 0.00 0.00 86 1014.8
20260507031552 6 174 0.0 0.0 0.00 0.00 0.00 86 1014.9
20260507031052 6 176 0.0 0.0 0.00 0.00 0.00 86 1014.9
20260507030552 6 176 0.0 0.0 0.00 0.00 0.00 86 1014.9
20260507030053 6 177 0.0 0.0 0.00 0.00 0.00 86 1014.9
20260507025552 6 177 0.0 0.0 0.00 0.00 0.00 86 1014.8
20260507025053 6 176 0.0 0.0 0.00 0.00 0.00 86 1014.9
20260507024553 6 177 0.0 0.0 0.00 0.00 0.00 86 1014.7
20260507024052 6 176 0.0 0.0 0.00 0.00 0.00 86 1014.7
20260507023552 6 176 0.0 0.0 0.00 0.00 0.00 86 1014.8
20260507023052 6 176 0.0 0.0 0.00 0.00 0.00 86 1014.6
20260507022552 6 176 0.0 0.0 0.00 0.00 0.00 86 1014.7
20260507022106 6 176 0.0 0.0 0.00 0.00 0.00 86 1014.6
20260507021553 6 176 0.0 0.0 0.00 0.00 0.00 85 1014.8
20260507021052 6 176 0.0 0.0 0.00 0.00 0.00 85 1014.7
20260507020553 6 176 0.0 0.0 0.00 0.00 0.00 85 1014.8
20260507020052 6 176 0.0 0.0 0.00 0.00 0.00 85 1014.8
20260507015552 6 176 0.0 0.0 0.00 0.00 0.00 85 1014.6
20260507015052 6 176 0.0 0.0 0.00 0.00 0.00 85 1014.8
20260507014553 6 176 0.0 4.8 0.00 0.00 0.00 85 1014.9
20260507014052 6 177 0.0 4.8 0.00 0.00 0.00 85 1014.8
20260507013554 6 156 0.0 0.0 0.00 0.00 0.00 85 1014.8
20260507013052 6 156 0.0 0.0 0.00 0.00 0.00 84 1014.9
20260507012550 6 156 0.0 0.0 0.00 0.00 0.00 84 1014.8
20260507012048 6 156 0.0 0.0 0.00 0.00 0.00 84 1014.8
20260507011546 6 156 0.0 0.0 0.00 0.00 0.00 84 1014.8
20260507011045 6 156 0.0 1.6 0.00 0.00 0.00 84 1014.8
20260507010542 6 155 0.0 1.6 0.00 0.00 0.00 84 1014.9
20260507010040 6 179 0.0 0.0 0.00 0.00 0.00 84 1014.8
20260507005538 6 177 0.0 0.0 0.00 0.00 0.00 83 1014.8
20260507005036 6 177 0.0 0.0 0.00 0.00 0.00 83 1014.8
20260507004031 6 177 0.0 1.6 0.00 0.00 0.00 83 1014.8
20260507003531 6 115 0.0 0.0 0.00 0.00 0.00 82 1014.8
20260507003033 6 115 0.0 0.0 0.00 0.00 0.00 82 1014.8
20260507002530 6 115 0.0 0.0 0.00 0.00 0.00 82 1014.9
20260507002030 6 115 0.0 0.0 0.00 0.00 0.00 82 1014.8
20260507001535 6 115 0.0 1.6 0.00 0.00 0.00 82 1014.9
20260507001030 6 113 0.0 1.6 0.00 0.00 0.00 82 1015.0
20260507000532 6 113 0.0 1.6 0.00 0.00 0.00 81 1014.9
20260507000029 6 113 0.0 1.6 0.00 0.00 0.00 81 1014.9
20260506235527 6 113 0.0 1.6 0.00 0.00 0.00 81 1014.9
20260506235027 6 113 0.0 1.6 0.00 0.00 0.00 81 1015.0
20260506234528 6 113 0.0 1.6 0.00 0.00 0.00 80 1015.0
20260506234024 6 112 0.0 1.6 0.00 0.00 0.00 80 1015.1
20260506233524 6 113 0.0 1.6 0.00 0.00 0.00 80 1015.0
20260506233022 6 112 0.0 3.2 0.00 0.00 0.00 80 1015.1
20260506232520 5 112 0.0 3.2 0.00 0.00 0.00 80 1015.0
20260506232018 5 113 0.0 3.2 0.00 0.00 0.00 80 1014.9
20260506231516 5 113 0.0 3.2 0.00 0.00 0.00 81 1015.0
20260506231013 5 114 0.0 1.6 0.00 0.00 0.00 81 1014.9
20260506230511 5 114 0.0 0.0 0.00 0.00 0.00 80 1015.0
20260506230010 5 114 0.0 0.0 0.00 0.00 0.00 80 1014.9
20260506225507 5 114 0.0 0.0 0.00 0.00 0.00 79 1015.0
20260506225006 5 114 0.0 0.0 0.00 0.00 0.00 79 1014.9
20260506224506 5 114 0.0 0.0 0.00 0.00 0.00 78 1015.0
20260506224006 5 114 0.0 0.0 0.00 0.00 0.00 78 1015.0
20260506223504 6 114 0.0 0.0 0.00 0.00 0.00 78 1014.9
20260506222957 6 114 0.0 0.0 0.00 0.00 0.00 77 1014.8
20260506222453 6 114 0.0 0.0 0.00 0.00 0.00 77 1014.8
20260506221953 6 114 0.0 1.6 0.00 0.00 0.00 77 1014.6
20260506221453 6 114 0.0 1.6 0.00 0.00 0.00 77 1014.7
20260506220953 6 114 0.0 0.0 0.00 0.00 0.00 77 1014.6
20260506220450 6 115 0.0 1.6 0.00 0.00 0.00 77 1014.6
20260506215950 6 115 0.0 1.6 0.00 0.00 0.00 77 1014.6
20260506215448 6 115 0.0 1.6 0.00 0.00 0.00 77 1014.6
20260506214947 6 115 0.0 0.0 0.00 0.00 0.00 75 1014.7
20260506214448 6 115 0.0 0.0 0.00 0.00 0.00 75 1014.6
20260506213946 6 115 0.0 0.0 0.00 0.00 0.00 74 1014.6
20260506213443 6 115 0.0 0.0 0.00 0.00 0.00 73 1014.6
20260506212942 7 115 0.0 0.0 0.00 0.00 0.00 72 1014.6
20260506212440 7 115 0.0 0.0 0.00 0.00 0.00 72 1014.7
20260506211937 7 115 0.0 1.6 0.00 0.00 0.00 72 1014.6
20260506211436 7 115 0.0 1.6 0.00 0.00 0.00 72 1014.5
20260506210932 7 115 0.0 1.6 0.00 0.00 0.00 71 1014.6
20260506210431 8 115 0.0 1.6 0.00 0.00 0.00 71 1014.4
20260506205931 8 114 0.0 3.2 0.00 0.00 0.00 71 1014.6
20260506205431 8 114 0.0 3.2 0.00 0.00 0.00 70 1014.4
20260506204937 8 114 0.0 1.6 0.00 0.00 0.00 70 1014.4
20260506204437 8 114 0.0 1.6 0.00 0.00 0.00 70 1014.3
20260506203932 8 114 0.0 0.0 0.00 0.00 0.00 69 1014.2
20260506203424 8 114 0.0 0.0 0.00 0.00 0.00 69 1014.3
20260506202921 8 114 0.0 0.0 0.00 0.00 0.00 69 1014.3
20260506202420 8 114 0.0 3.2 0.00 0.00 0.00 68 1014.1
20260506201918 9 114 0.0 3.2 0.00 0.00 0.00 67 1014.0
20260506201415 9 113 0.0 3.2 0.00 0.00 0.00 67 1013.8
20260506200916 9 114 0.0 3.2 0.00 0.00 0.00 67 1013.8
20260506200413 9 114 0.0 3.2 0.00 0.00 0.00 66 1013.8
20260506195911 10 115 0.0 1.6 0.00 0.00 0.00 66 1013.9
20260506195412 10 115 0.0 1.6 0.00 0.00 0.00 66 1013.9
20260506194911 10 115 0.0 1.6 0.00 0.00 0.00 65 1013.9
20260506194410 10 115 0.0 3.2 0.00 0.00 0.00 65 1013.9
20260506193907 10 115 0.0 3.2 0.00 0.00 0.00 64 1013.8
20260506193406 10 114 0.0 3.2 0.00 0.00 0.00 63 1013.8
20260506192905 11 115 0.0 3.2 0.00 0.00 0.00 62 1013.8
20260506192405 11 115 0.0 3.2 0.00 0.00 0.00 61 1013.8
20260506191903 11 115 0.0 3.2 0.00 0.00 0.00 60 1013.7
20260506191405 11 115 0.0 4.8 0.00 0.00 0.00 59 1013.7
20260506190905 11 116 0.0 6.4 0.00 0.00 0.00 59 1013.6
20260506190406 12 116 0.0 6.4 0.00 0.00 0.00 58 1013.6
20260506185904 12 115 0.0 3.2 0.00 0.00 0.00 59 1013.6
20260506185402 12 115 0.0 3.2 0.00 0.00 0.00 59 1013.6
20260506184903 12 118 0.0 1.6 0.00 0.00 0.00 58 1013.6
20260506183903 12 117 0.0 3.2 0.00 0.00 0.00 57 1013.5
20260506183405 12 114 0.0 1.6 0.00 0.00 0.00 57 1013.6
20260506182902 12 114 0.0 1.6 0.00 0.00 0.00 57 1013.4
20260506182403 12 114 0.0 4.8 0.00 0.00 0.00 57 1013.5
20260506181902 12 114 0.0 4.8 0.00 0.00 0.00 56 1013.4
20260506181403 12 113 0.0 1.6 0.00 0.00 0.00 56 1013.4
20260506180902 12 113 0.0 4.8 0.00 0.00 0.00 56 1013.3
20260506180402 12 113 0.0 4.8 0.00 0.00 0.00 55 1013.3
20260506175901 12 114 0.0 3.2 0.00 0.00 0.00 55 1013.1
20260506175405 12 113 0.0 3.2 0.00 0.00 0.00 56 1013.1
20260506174903 13 113 0.0 3.2 0.00 0.00 0.00 55 1013.0
20260506174403 13 118 0.0 4.8 0.00 0.00 0.00 56 1013.0
20260506173902 13 140 0.0 4.8 0.00 0.00 0.00 55 1013.0
20260506173403 13 214 0.0 1.6 0.00 0.00 0.00 54 1013.0
20260506172857 13 110 0.0 1.6 0.00 0.00 0.00 54 1012.9
20260506172352 13 115 0.0 1.6 0.00 0.00 0.00 55 1013.0
20260506171846 13 134 0.0 1.6 0.00 0.00 0.00 55 1013.0
20260506171344 13 120 0.0 4.8 0.00 0.00 0.00 55 1013.0
20260506170837 13 120 0.0 4.8 0.00 0.00 0.00 55 1012.9
20260506170337 13 122 0.0 6.4 0.00 0.00 0.00 54 1013.0
20260506165836 13 116 0.0 6.4 0.00 0.00 0.00 52 1012.9
20260506165333 13 115 0.0 1.6 0.00 0.00 0.00 53 1013.0
20260506164831 13 192 0.0 1.6 0.00 0.00 0.00 52 1013.0
20260506164332 14 117 0.0 1.6 0.00 0.00 0.00 50 1013.0
20260506163831 14 227 0.0 1.6 0.00 0.00 0.00 51 1012.9
20260506163332 14 228 0.0 3.2 0.00 0.00 0.00 51 1012.9
20260506162831 14 214 0.0 3.2 0.00 0.00 0.00 51 1012.9
20260506162331 14 233 0.0 1.6 0.00 0.00 0.00 50 1012.8
20260506161831 14 141 0.0 1.6 0.00 0.00 0.00 52 1012.9
20260506161331 13 108 0.0 1.6 0.00 0.00 0.00 54 1013.0
20260506160831 13 117 0.0 4.8 0.00 0.00 0.00 53 1012.9
20260506160331 13 117 1.6 6.4 0.00 0.00 0.00 52 1013.0
20260506155835 14 117 1.6 6.4 0.00 0.00 0.00 52 1012.9
20260506155329 14 117 0.0 6.4 0.00 0.00 0.00 52 1012.9
20260506154827 14 144 0.0 4.8 0.00 0.00 0.00 52 1013.0
20260506154328 15 114 0.0 4.8 0.00 0.00 0.00 51 1013.0
20260506153827 15 221 0.0 3.2 0.00 0.00 0.00 51 1013.0
20260506153328 15 221 0.0 4.8 0.00 0.00 0.00 50 1013.0
20260506152826 15 227 0.0 4.8 0.00 0.00 0.00 50 1013.0
20260506152325 15 111 0.0 3.2 0.00 0.00 0.00 51 1013.0
20260506151823 15 114 0.0 1.6 0.00 0.00 0.00 51 1013.1
20260506151322 15 231 0.0 1.6 0.00 0.00 0.00 51 1013.1
20260506150822 15 101 0.0 4.8 0.00 0.00 0.00 50 1013.1
20260506150321 16 77 1.6 4.8 0.00 0.00 0.00 49 1013.1
20260506145821 16 223 0.0 4.8 0.00 0.00 0.00 50 1013.2
20260506145319 16 233 1.6 9.7 0.00 0.00 0.00 48 1013.2
20260506144819 15 226 1.6 9.7 0.00 0.00 0.00 48 1013.2